Location: Altmatt
(47.1333°N, 8.7000°E)
Time: 08:16:50
(UTC+00:00)

Cosmos 1151 Rocket - Pass Details

Date: 13 July 2020
Orbit: 591 x 617 km, 82.5° (Epoch: 04 August)

Event Time Altitude Azimuth Distance (km) Brightness Sun altitude
Rises 21:58:56 0° 350° (N) 2,865 8.0 -18.1°
Reaches altitude 10° 22:01:09 10° 349° (N) 1,953 6.8 -18.3°
Maximum altitude 22:05:28 83° 264° (W) 608 2.9 -18.6°
Enters shadow 22:06:54 42° 179° (S) 861 3.3 -18.6°
